Location: Unspecified
(0.0000°N, 0.0000°E)
Time: 23:22:03
(UTC+00:00)

Vanguard 2 Rocket - Visible Passes

Search period start: 12 December 2018 00:00
Search period end: 22 December 2018 00:00
Orbit: 554 x 3327 km, 32.9° (Epoch: 12 December)

Date Brightness Start Highest point End Pass type
(mag) Time Alt. Az. Time Alt. Az. Time Alt. Az.
12 Dec 10.4 00:45:33 10° SSW 00:46:08 11° SSW 00:46:08 11° SSW visible
12 Dec 10.9 18:53:56 10° WSW 19:08:19 24° SSW 19:22:09 10° SSE visible
12 Dec 10.6 21:23:13 10° SSW 21:32:12 15° S 21:39:41 10° SSE visible
12 Dec 10.2 23:43:56 10° SSW 23:49:26 18° S 23:49:26 18° S visible
13 Dec 11.0 17:49:50 10° WSW 18:04:51 30° SSW 18:21:05 10° SSE visible
13 Dec 10.8 20:17:39 10° SW 20:28:43 17° S 20:38:21 10° SSE visible
13 Dec 10.2 22:41:39 10° SSW 22:51:25 19° S 22:52:43 18° SSE visible
14 Dec 10.9 19:12:04 10° SW 19:24:53 20° SSW 19:36:55 10° SSE visible
14 Dec 10.4 21:38:29 10° SSW 21:48:55 18° S 21:56:02 12° SE visible
14 Dec 10.2 23:57:11 10° SW 00:01:47 19° SSW 00:01:47 19° SSW visible
15 Dec 11.0 18:07:21 10° WSW 18:21:02 23° SSW 18:35:20 10° SSE visible
15 Dec 10.7 20:34:26 10° SW 20:45:40 17° S 20:55:09 10° SE visible
15 Dec 10.0 22:55:07 10° SSW 23:05:05 25° S 23:05:05 25° S visible
16 Dec 10.8 19:29:47 10° SW 19:41:51 18° S 19:52:52 10° SE visible
16 Dec 10.1 21:52:37 10° SSW 22:05:17 23° SSE 22:08:24 21° SSE visible
17 Dec 10.3 00:10:43 10° SW 00:14:09 18° SW 00:14:09 18° SW visible
17 Dec 11.0 18:25:13 10° SW 18:37:46 20° S 18:50:25 10° SSE visible
17 Dec 10.4 20:49:38 10° SSW 21:02:26 20° S 21:11:44 12° SE visible
17 Dec 10.0 23:08:36 10° SW 23:17:29 29° SSW 23:17:29 29° SSW visible
18 Dec 10.7 19:46:13 10° SSW 19:58:52 19° S 20:09:59 10° SE visible
18 Dec 9.9 22:06:18 10° SW 22:20:50 31° SSE 22:20:50 31° SSE visible
19 Dec 10.5 00:24:38 10° SW 00:26:36 15° SW 00:26:36 15° SW visible
19 Dec 10.9 18:42:33 10° SW 18:54:49 19° S 19:06:45 10° SE visible
19 Dec 10.1 21:03:52 10° SSW 21:18:44 26° SSE 21:24:11 22° SE visible
19 Dec 10.0 23:22:15 10° SW 23:29:57 29° SSW 23:29:57 29° SSW visible
20 Dec 10.5 20:01:17 10° SSW 20:15:35 23° SSE 20:27:34 10° ESE visible
20 Dec 9.7 22:19:55 10° SW 22:33:20 40° S 22:33:20 40° S visible
21 Dec 10.7 00:39:02 10° WSW 00:39:06 10° WSW 00:39:06 10° WSW visible
21 Dec 10.7 18:58:37 10° SSW 19:11:50 20° S 19:24:13 10° SE visible
21 Dec 9.8 21:17:39 10° SW 21:34:34 36° SSE 21:36:44 34° SE visible
